PAA609 EDDT-EDDH

Flight info

Callsign PAA609
Flight time N/A
Altitude 20000
Route TGL DCT RW DCT 522900N0123340E DCT BKD DCT HAM
Aircraft B722/M-SDF/C

Departure

Time N/A
Airport EDDT

Arrival

Time 2026-05-06 11:11
Airport Hamburg Helmut Schmidt Airport (EDDH)
Time Latitude Longitude Altitude Speed Heading
2026-05-06 10:03 52.55324 13.28916 134 ft 0 kts 59°
2026-05-06 10:25 52.55317 13.28897 134 ft 2 kts 59°
2026-05-06 10:26 52.55310 13.28878 134 ft 0 kts 59°
2026-05-06 10:26 52.55304 13.28862 134 ft 2 kts 46°
2026-05-06 10:26 52.55292 13.28848 134 ft 2 kts 24°
2026-05-06 10:26 52.55278 13.28841 134 ft 2 kts
2026-05-06 10:27 52.55263 13.28843 134 ft 2 kts 343°
2026-05-06 10:27 52.55250 13.28852 134 ft 1 kts 324°
2026-05-06 10:27 52.55248 13.28855 134 ft 1 kts 321°
2026-05-06 10:27 52.55272 13.28824 134 ft 4 kts 321°
2026-05-06 10:28 52.55284 13.28809 134 ft 0 kts 321°
2026-05-06 10:30 52.55287 13.28804 134 ft 3 kts 321°
2026-05-06 10:30 52.55320 13.28762 134 ft 6 kts 321°
2026-05-06 10:30 52.55361 13.28709 134 ft 8 kts 321°
2026-05-06 10:31 52.55421 13.28629 134 ft 13 kts 321°
2026-05-06 10:31 52.55504 13.28521 134 ft 16 kts 321°
2026-05-06 10:31 52.55557 13.28450 134 ft 8 kts 321°
2026-05-06 10:31 52.55581 13.28358 134 ft 10 kts 266°
2026-05-06 10:32 52.55574 13.28239 134 ft 10 kts 262°
2026-05-06 10:32 52.55563 13.28112 134 ft 11 kts 262°
2026-05-06 10:32 52.55550 13.27976 134 ft 12 kts 257°
2026-05-06 10:32 52.55531 13.27820 134 ft 16 kts 259°
2026-05-06 10:33 52.55525 13.27653 134 ft 12 kts 295°
2026-05-06 10:33 52.55561 13.27577 134 ft 0 kts 317°
2026-05-06 10:33 52.55562 13.27575 134 ft 1 kts 318°
2026-05-06 10:33 52.55593 13.27541 134 ft 9 kts 334°
2026-05-06 10:34 52.55664 13.27538 134 ft 9 kts 40°
2026-05-06 10:34 52.55678 13.27590 134 ft 0 kts 80°
2026-05-06 10:35 52.55690 13.27711 134 ft 39 kts 80°
2026-05-06 10:35 52.55773 13.28564 134 ft 112 kts 80°
2026-05-06 10:35 52.55929 13.30198 164 ft 170 kts 78°
2026-05-06 10:35 52.56089 13.32124 905 ft 164 kts 80°
2026-05-06 10:36 52.56226 13.33916 1551 ft 170 kts 79°
2026-05-06 10:36 52.56406 13.35918 2091 ft 180 kts 79°
2026-05-06 10:36 52.56597 13.37970 2581 ft 192 kts 80°
2026-05-06 10:36 52.56714 13.40281 2916 ft 211 kts 86°
2026-05-06 10:37 52.56831 13.42800 3316 ft 230 kts 83°
2026-05-06 10:37 52.57030 13.45494 3777 ft 249 kts 82°
2026-05-06 10:37 52.57250 13.48435 4305 ft 265 kts 81°
2026-05-06 10:37 52.57478 13.51536 4716 ft 286 kts 79°
2026-05-06 10:38 52.57703 13.53132 4984 ft 289 kts 69°
2026-05-06 10:38 52.58775 13.55818 5457 ft 283 kts 37°
2026-05-06 10:38 52.60571 13.57103 5433 ft 287 kts
2026-05-06 10:38 52.62481 13.56412 5453 ft 286 kts 327°
2026-05-06 10:39 52.63799 13.54041 5485 ft 285 kts 294°
2026-05-06 10:39 52.64415 13.50992 5813 ft 278 kts 278°
2026-05-06 10:39 52.64475 13.47961 6470 ft 254 kts 258°
2026-05-06 10:39 52.63784 13.45354 6717 ft 247 kts 239°
2026-05-06 10:40 52.62859 13.42930 7039 ft 258 kts 239°
2026-05-06 10:40 52.61984 13.40379 7855 ft 257 kts 243°
2026-05-06 10:40 52.61200 13.37724 8609 ft 258 kts 246°
2026-05-06 10:40 52.60465 13.35020 9259 ft 262 kts 246°
2026-05-06 10:41 52.59688 13.32260 9780 ft 271 kts 244°
2026-05-06 10:41 52.58820 13.29480 10469 ft 275 kts 242°
2026-05-06 10:41 52.58025 13.26717 11240 ft 275 kts 250°
2026-05-06 10:41 52.57646 13.23537 11723 ft 287 kts 270°
2026-05-06 10:42 52.58203 13.20380 12166 ft 303 kts 298°
2026-05-06 10:42 52.59369 13.17460 12765 ft 306 kts 300°
2026-05-06 10:42 52.60550 13.14527 13266 ft 312 kts 300°
2026-05-06 10:42 52.61768 13.11498 13711 ft 320 kts 300°
2026-05-06 10:43 52.62984 13.08443 14334 ft 321 kts 299°
2026-05-06 10:43 52.64148 13.05394 15038 ft 318 kts 297°
2026-05-06 10:43 52.65242 13.02124 15338 ft 328 kts 293°
2026-05-06 10:44 52.67232 12.95106 15894 ft 350 kts 291°
2026-05-06 10:44 52.68229 12.91467 16391 ft 355 kts 292°
2026-05-06 10:44 52.69282 12.87749 16928 ft 358 kts 289°
2026-05-06 10:44 52.70169 12.83893 17466 ft 361 kts 287°
2026-05-06 10:45 52.71016 12.80027 17996 ft 364 kts 287°
2026-05-06 10:45 52.71874 12.76086 18531 ft 366 kts 287°
2026-05-06 10:45 52.72768 12.72136 19081 ft 368 kts 288°
2026-05-06 10:45 52.73670 12.68183 19588 ft 370 kts 288°
2026-05-06 10:46 52.74585 12.64172 20044 ft 374 kts 288°
2026-05-06 10:46 52.75499 12.60146 20473 ft 377 kts 288°
2026-05-06 10:46 52.76419 12.56092 20890 ft 381 kts 288°
2026-05-06 10:46 52.77375 12.52002 21315 ft 384 kts 289°
2026-05-06 10:47 52.78379 12.47912 21727 ft 387 kts 291°
2026-05-06 10:47 52.79488 12.43886 22118 ft 391 kts 293°
2026-05-06 10:47 52.80648 12.39795 22301 ft 400 kts 293°
2026-05-06 10:47 52.81870 12.35500 22121 ft 419 kts 293°
2026-05-06 10:48 52.83187 12.31104 21935 ft 437 kts 295°
2026-05-06 10:48 52.84615 12.26601 21831 ft 451 kts 295°
2026-05-06 10:48 52.86098 12.21965 21797 ft 458 kts 295°
2026-05-06 10:48 52.87569 12.17235 21774 ft 462 kts 293°
2026-05-06 10:49 52.88936 12.12461 21771 ft 462 kts 292°
2026-05-06 10:49 52.90218 12.07589 21773 ft 460 kts 290°
2026-05-06 10:49 52.91430 12.02736 21775 ft 460 kts 290°
2026-05-06 10:49 52.92629 11.97797 21778 ft 459 kts 290°
2026-05-06 10:50 52.93801 11.92912 21788 ft 459 kts 290°
2026-05-06 10:50 52.94977 11.87986 21802 ft 458 kts 290°
2026-05-06 10:50 52.96148 11.83054 21814 ft 458 kts 290°
2026-05-06 10:50 52.97305 11.78167 21826 ft 457 kts 290°
2026-05-06 10:51 52.98471 11.73275 21835 ft 457 kts 290°
2026-05-06 10:51 52.99726 11.68386 21835 ft 457 kts 292°
2026-05-06 10:51 53.01043 11.63662 21832 ft 458 kts 295°
2026-05-06 10:51 53.02531 11.58962 21831 ft 458 kts 296°
2026-05-06 10:52 53.04032 11.54318 21830 ft 458 kts 297°
2026-05-06 10:52 53.05580 11.49705 21830 ft 458 kts 298°
2026-05-06 10:52 53.07258 11.45207 21831 ft 458 kts 302°
2026-05-06 10:52 53.09031 11.40766 21831 ft 458 kts 303°
2026-05-06 10:53 53.10825 11.36377 21741 ft 459 kts 303°
2026-05-06 10:53 53.12602 11.32051 21402 ft 453 kts 302°
2026-05-06 10:53 53.14374 11.27743 20973 ft 446 kts 302°
2026-05-06 10:53 53.16235 11.23750 20551 ft 440 kts 310°
2026-05-06 10:54 53.18303 11.19962 20121 ft 433 kts 310°
2026-05-06 10:54 53.20314 11.16284 19696 ft 427 kts 310°
2026-05-06 10:54 53.22290 11.12682 19274 ft 421 kts 310°
2026-05-06 10:54 53.24249 11.09112 18850 ft 416 kts 310°
2026-05-06 10:55 53.26208 11.05613 18425 ft 411 kts 312°
2026-05-06 10:55 53.28194 11.02231 18013 ft 405 kts 312°
2026-05-06 10:55 53.30128 10.98955 17877 ft 392 kts 312°
2026-05-06 10:55 53.32015 10.95769 17836 ft 380 kts 312°
2026-05-06 10:56 53.33812 10.92646 17824 ft 367 kts 311°
2026-05-06 10:56 53.35542 10.89551 17829 ft 358 kts 310°
2026-05-06 10:56 53.37237 10.86502 17840 ft 357 kts 310°
2026-05-06 10:56 53.38896 10.83459 17846 ft 352 kts 309°
2026-05-06 10:57 53.40477 10.80441 17716 ft 343 kts 309°
2026-05-06 10:57 53.42044 10.77423 17444 ft 337 kts 309°
2026-05-06 10:57 53.43543 10.74508 17072 ft 334 kts 308°
2026-05-06 10:57 53.45023 10.71505 16576 ft 335 kts 307°
2026-05-06 10:58 53.46211 10.68179 16018 ft 332 kts 286°
2026-05-06 10:58 53.46442 10.64355 15472 ft 329 kts 263°
2026-05-06 10:58 53.46017 10.60580 14929 ft 331 kts 256°
2026-05-06 10:58 53.45435 10.56852 14384 ft 333 kts 254°
2026-05-06 10:59 53.44800 10.53096 13837 ft 336 kts 254°
2026-05-06 10:59 53.44152 10.49343 13293 ft 339 kts 254°
2026-05-06 10:59 53.43491 10.45522 12746 ft 341 kts 253°
2026-05-06 10:59 53.42821 10.41727 12197 ft 340 kts 254°
2026-05-06 11:00 53.42175 10.38020 11641 ft 327 kts 254°
2026-05-06 11:00 53.41548 10.34458 11074 ft 305 kts 253°
2026-05-06 11:00 53.40977 10.31162 10515 ft 284 kts 253°
2026-05-06 11:00 53.40442 10.28080 9969 ft 275 kts 253°
2026-05-06 11:01 53.39923 10.25004 9483 ft 274 kts 253°
2026-05-06 11:01 53.39402 10.21919 8899 ft 276 kts 252°
2026-05-06 11:01 53.38865 10.18886 8395 ft 275 kts 252°
2026-05-06 11:01 53.38291 10.15815 7937 ft 272 kts 251°
2026-05-06 11:02 53.37719 10.12845 7503 ft 269 kts 252°
2026-05-06 11:02 53.37142 10.09871 6981 ft 270 kts 252°
2026-05-06 11:02 53.36594 10.06904 6549 ft 266 kts 253°
2026-05-06 11:02 53.36049 10.03954 6062 ft 266 kts 252°
2026-05-06 11:03 53.35490 10.00996 5635 ft 264 kts 252°
2026-05-06 11:03 53.34920 9.98086 5366 ft 263 kts 252°
2026-05-06 11:03 53.34341 9.95197 5182 ft 261 kts 252°
2026-05-06 11:03 53.34082 9.92253 5052 ft 253 kts 282°
2026-05-06 11:04 53.34914 9.89830 4945 ft 242 kts 322°
2026-05-06 11:04 53.36088 9.87848 5034 ft 238 kts 314°
2026-05-06 11:04 53.37141 9.85747 5051 ft 238 kts 312°
2026-05-06 11:04 53.38180 9.83568 4809 ft 239 kts 311°
2026-05-06 11:05 53.39212 9.81344 4471 ft 244 kts 311°
2026-05-06 11:05 53.40250 9.79101 4238 ft 244 kts 312°
2026-05-06 11:05 53.41381 9.77020 4023 ft 239 kts 327°
2026-05-06 11:05 53.42805 9.75720 3799 ft 233 kts 341°
2026-05-06 11:06 53.44326 9.74733 3514 ft 234 kts 344°
2026-05-06 11:06 53.45848 9.73818 3204 ft 235 kts 345°
2026-05-06 11:06 53.47390 9.72938 3066 ft 227 kts 347°
2026-05-06 11:06 53.48876 9.72585 3056 ft 209 kts
2026-05-06 11:07 53.50228 9.73160 3039 ft 201 kts 34°
2026-05-06 11:07 53.51283 9.74679 3021 ft 200 kts 51°
2026-05-06 11:07 53.52118 9.76474 2993 ft 186 kts 51°
2026-05-06 11:07 53.52848 9.78186 2844 ft 179 kts 56°
2026-05-06 11:08 53.53563 9.79926 2715 ft 180 kts 53°
2026-05-06 11:08 53.54335 9.81592 2512 ft 179 kts 49°
2026-05-06 11:08 53.55139 9.83070 2295 ft 162 kts 45°
2026-05-06 11:08 53.55908 9.84368 1993 ft 156 kts 47°
2026-05-06 11:09 53.56594 9.85759 1694 ft 153 kts 52°
2026-05-06 11:09 53.57248 9.87184 1485 ft 155 kts 50°
2026-05-06 11:09 53.57926 9.88539 1327 ft 149 kts 48°
2026-05-06 11:09 53.58582 9.89804 1171 ft 141 kts 49°
2026-05-06 11:10 53.59205 9.91050 936 ft 139 kts 50°
2026-05-06 11:10 53.59816 9.92278 748 ft 136 kts 51°
2026-05-06 11:10 53.60419 9.93519 562 ft 136 kts 51°
2026-05-06 11:10 53.61018 9.94745 387 ft 135 kts 50°
2026-05-06 11:11 53.61621 9.95957 217 ft 135 kts 49°
2026-05-06 11:11 53.62214 9.97147 72 ft 130 kts 50°
2026-05-06 11:11 53.62721 9.98187 65 ft 94 kts 50°
2026-05-06 11:11 53.63007 9.98766 65 ft 39 kts 50°
2026-05-06 11:12 53.63091 9.99075 65 ft 25 kts 85°
2026-05-06 11:12 53.63088 9.99213 65 ft 0 kts 95°
2026-05-06 11:12 53.63086 9.99253 65 ft 8 kts 95°
2026-05-06 11:13 53.63085 9.99343 65 ft 9 kts 82°
2026-05-06 11:13 53.63126 9.99472 65 ft 16 kts 56°
2026-05-06 11:13 53.63198 9.99628 65 ft 12 kts 52°
2026-05-06 11:13 53.63212 9.99658 65 ft 0 kts 52°
2026-05-06 11:14 53.63232 9.99698 65 ft 11 kts 42°
2026-05-06 11:14 53.63311 9.99822 65 ft 16 kts 49°
2026-05-06 11:14 53.63387 9.99974 65 ft 14 kts 51°
2026-05-06 11:14 53.63449 10.00103 65 ft 5 kts 51°
2026-05-06 11:15 53.63479 10.00167 65 ft 7 kts 59°
2026-05-06 11:15 53.63459 10.00215 65 ft 6 kts 173°
2026-05-06 11:15 53.63403 10.00225 65 ft 9 kts 175°
2026-05-06 11:15 53.63336 10.00233 65 ft 10 kts 176°
2026-05-06 11:16 53.63267 10.00240 65 ft 6 kts 176°
2026-05-06 11:16 53.63239 10.00255 65 ft 3 kts 131°
2026-05-06 11:16 53.63243 10.00277 65 ft 4 kts 65°
2026-05-06 11:16 53.63247 10.00326 65 ft 4 kts 84°
2026-05-06 11:17 53.63249 10.00353 65 ft 0 kts 84°